Nuiqsut, AK

10:56 AM AKDT on April 29, 2017 (GMT -0800)
Nuiqsut

Weather History for PAQT - March, 2014

Change the Weather History Date:

Saturday, March 8, 2014

  Actual Average (PAKU) Record (PAKU)
Temperature  
Mean Temperature -22 °F -  
Max Temperature -14 °F -7 °F 6 °F (2013)
Min Temperature -29 °F -18 °F -44 °F (1989)
Degree Days  
Heating Degree Days 86    
Moisture  
Dew Point -25 °F    
Average Humidity 83    
Maximum Humidity 90    
Minimum Humidity 78    
Precipitation  
Precipitation 0.00 in - - ()
Sea Level Pressure  
Sea Level Pressure 30.08 in    
Wind  
Wind Speed 5 mph (WNW)    
Max Wind Speed 8 mph    
Max Gust Speed -    
Visibility 7 miles    
Events Snow    
Averages and records for this station are not official NWS values.
T = Trace of Precipitation, MM = Missing Value Source: NWS Daily Summary

Daily Weather History Graph

Daily Weather History Graph

Search for Another Location

Airport or City:

Trip Planner

Search our weather history database for the weather conditions in past years. The results will help you decide how hot, cold, wet, or windy it might be!

Date:

Astronomy

Mar. 08, 2014 Rise Set
Actual Time 7:57 AM AKST 6:33 PM AKST
Civil Twilight 6:56 AM AKST 7:35 PM AKST
Nautical Twilight 5:44 AM AKST 8:48 PM AKST
Astronomical Twilight 4:22 AM AKST 10:11 PM AKST
Moon 8:22 AM AKST (3/8) 6:03 AM AKST (3/8)
Length of Visible Light 12h 38m
Length of Day
10h 35m
First Quarter, 53% of the Moon is Illuminated
Mar 8
First Quarter
Mar 16
Full
Mar 23
Last Quarter
Mar 30
New
Apr 7
First Quarter

Hourly Weather History & Observations

Time (AKST) Temp. Windchill Dew Point Humidity Pressure Visibility Wind Dir Wind Speed Gust Speed Precip Events Conditions
12:53 AM -14.1 °F -23.9 °F -17.0 °F 87% 30.12 in 10.0 mi WNW 3.5 mph - N/A   Overcast
1:53 AM -14.1 °F -23.9 °F -17.0 °F 87% 30.12 in 10.0 mi NW 3.5 mph - N/A   Overcast
2:53 AM -14.1 °F - -17.0 °F 87% 30.11 in 10.0 mi Calm Calm - N/A   Overcast
3:53 AM -14.1 °F - -18.0 °F 82% 30.11 in 10.0 mi Calm Calm - N/A   Overcast
4:53 AM -15.0 °F -29.3 °F -18.9 °F 82% 30.11 in 5.0 mi NNW 5.8 mph - N/A   Overcast
5:09 AM -16.1 °F -30.6 °F -18.9 °F 87% 30.10 in 9.0 mi NNW 5.8 mph - N/A   Overcast
5:38 AM -17.0 °F -29.7 °F -20.0 °F 86% 30.10 in 9.0 mi NW 4.6 mph - N/A   Overcast
5:53 AM -17.0 °F -27.2 °F -20.9 °F 82% 30.11 in 8.0 mi NW 3.5 mph - N/A   Overcast
6:53 AM -17.0 °F -29.7 °F -20.9 °F 82% 30.10 in 10.0 mi WNW 4.6 mph - 0.00 in   Overcast
7:23 AM -17.0 °F -29.7 °F -20.0 °F 86% 30.09 in 8.0 mi NW 4.6 mph - 0.00 in   Overcast
7:53 AM -17.0 °F -31.7 °F -20.9 °F 82% 30.10 in 6.0 mi WNW 5.8 mph - 0.00 in   Overcast
8:53 AM -18.0 °F -34.7 °F -20.9 °F 87% 30.09 in 6.0 mi WNW 6.9 mph - N/A   Overcast
9:28 AM -18.0 °F -36.1 °F -22.0 °F 82% 30.08 in 6.0 mi WNW 8.1 mph - N/A   Scattered Clouds
9:50 AM -18.4 °F -35.1 °F -22.0 °F 84% 30.08 in 3.0 mi WNW 6.9 mph - N/A   Mostly Cloudy
9:53 AM -18.9 °F -34.0 °F -22.0 °F 86% 30.09 in 3.0 mi WNW 5.8 mph - N/A   Mostly Cloudy
10:13 AM -18.0 °F -33.0 °F -22.0 °F 82% 30.08 in 3.0 mi WNW 5.8 mph - N/A   Overcast
10:53 AM -17.0 °F -33.4 °F -20.9 °F 82% 30.09 in 6.0 mi West 6.9 mph - N/A   Overcast
11:53 AM -18.0 °F -33.0 °F -22.0 °F 82% 30.09 in 7.0 mi WNW 5.8 mph - N/A   Overcast
12:53 PM -17.0 °F -34.8 °F -22.0 °F 78% 30.08 in 5.0 mi WNW 8.1 mph - N/A   Haze
1:53 PM -17.0 °F -33.4 °F -22.0 °F 78% 30.08 in 10.0 mi West 6.9 mph - N/A   Overcast
2:53 PM -18.9 °F -32.0 °F -23.1 °F 81% 30.08 in 10.0 mi West 4.6 mph - N/A   Scattered Clouds
3:53 PM -20.0 °F -33.3 °F -25.1 °F 78% 30.08 in 10.0 mi West 4.6 mph - N/A   Clear
4:53 PM -20.0 °F -33.3 °F -24.0 °F 82% 30.07 in 9.0 mi WNW 4.6 mph - N/A   Clear
5:53 PM -25.1 °F -36.5 °F -29.0 °F 82% 30.07 in 10.0 mi West 3.5 mph - N/A   Clear
6:53 PM -26.0 °F -40.2 °F -27.9 °F 90% 30.07 in 10.0 mi WSW 4.6 mph - N/A   Mostly Cloudy
7:21 PM -27.9 °F -42.5 °F -32.1 °F 81% 30.07 in 2.5 mi WSW 4.6 mph - 0.00 in Snow Light Snow
7:30 PM -27.0 °F -43.7 °F -29.9 °F 86% 30.06 in 1.2 mi WSW 5.8 mph - 0.00 in Snow Light Snow
7:47 PM -25.6 °F -43.8 °F -29.2 °F 83% 30.06 in 2.5 mi West 6.9 mph - 0.00 in Snow Light Snow
7:51 PM -25.6 °F -43.8 °F -29.2 °F 83% 30.06 in 3.0 mi West 6.9 mph - 0.00 in   Overcast
7:53 PM -26.0 °F -44.2 °F -29.0 °F 85% 30.07 in 3.0 mi West 6.9 mph - 0.00 in   Overcast
8:00 PM -26.0 °F -44.2 °F -29.9 °F 81% 30.06 in 2.5 mi WNW 6.9 mph - N/A   Overcast
8:12 PM -24.0 °F -41.8 °F -27.9 °F 82% 30.06 in 4.0 mi WNW 6.9 mph - N/A   Overcast
8:24 PM -25.1 °F -39.1 °F -27.9 °F 86% 30.06 in 2.5 mi WNW 4.6 mph - N/A   Overcast
8:42 PM -25.1 °F -39.1 °F -29.9 °F 78% 30.06 in 5.0 mi West 4.6 mph - N/A   Haze
8:51 PM -27.4 °F -41.9 °F -31.0 °F 83% 30.06 in 9.0 mi West 4.6 mph - N/A   Scattered Clouds
8:53 PM -27.0 °F -41.5 °F -31.0 °F 81% 30.06 in 10.0 mi West 4.6 mph - N/A   Mostly Cloudy
9:10 PM -27.0 °F -43.7 °F -31.0 °F 81% 30.05 in 10.0 mi West 5.8 mph - N/A   Scattered Clouds
9:53 PM -29.9 °F -42.0 °F - N/A% 30.06 in 10.0 mi SSW 3.5 mph - N/A   Mostly Cloudy
10:53 PM -29.9 °F -47.1 °F - N/A% 30.05 in 10.0 mi WSW 5.8 mph - N/A   Mostly Cloudy
11:03 PM -29.9 °F -49.0 °F - N/A% 30.05 in 7.0 mi WSW 6.9 mph - N/A   Mostly Cloudy
11:44 PM -27.0 °F -45.5 °F -31.0 °F 81% 30.04 in 4.0 mi West 6.9 mph - N/A   Overcast
11:51 PM -27.4 °F -47.6 °F -31.0 °F 83% 30.04 in 5.0 mi West 8.1 mph - N/A   Overcast
11:53 PM -27.0 °F -45.5 °F -31.0 °F 81% 30.05 in 6.0 mi West 6.9 mph - N/A   Overcast